Weather History for Jefferson, NC

Change the Weather History Date:

Monday, January 21, 2013

  Actual Average Record
Temperature  
Mean Temperature 32 °F -  
Max Temperature 41 °F 40 °F 62 °F (1986)
Min Temperature 23 °F 20 °F -12 °F (1985)
Degree Days  
Heating Degree Days 32    
Moisture  
Dew Point 14 °F    
Average Humidity 41    
Maximum Humidity 56    
Minimum Humidity 31    
Precipitation  
Precipitation 0.00 in - - ()
Sea Level Pressure  
Sea Level Pressure 29.94 in    
Wind  
Wind Speed 11 mph (West)    
Max Wind Speed 32 mph    
Max Gust Speed 51 mph    
Visibility 10 miles    
Events      
Averages and records for this station are not official NWS values.
T = Trace of Precipitation, MM = Missing Value Source: NWS Daily Summary

Daily Weather History Graph

Daily Weather History Graph

Search for Another Location

Airport:

Trip Planner

Search our weather history database for the weather conditions in past years. The results will help you decide how hot, cold, wet, or windy it might be!

Date:

Astronomy

Jan. 21, 2013 Rise Set
Actual Time 7:34 AM EST 5:40 PM EST
Civil Twilight 7:06 AM EST 6:08 PM EST
Nautical Twilight 6:35 AM EST 6:39 PM EST
Astronomical Twilight 6:04 AM EST 7:10 PM EST
Moon 1:19 PM EST (1/21) 3:00 AM EST (1/21)
Length of Visible Light 11h 01m
Length of Day
10h 06m
Waxing Gibbous, 75% of the Moon is Illuminated
Jan 21
Waxing Gibbous
Jan 26
Full
Feb 3
Last Quarter
Feb 10
New
Feb 17
First Quarter

Hourly Weather History & Observations

Time (EST) Temp. Windchill Dew Point Humidity Pressure Visibility Wind Dir Wind Speed Gust Speed Precip Events Conditions
12:15 AM 37.8 °F 31.8 °F 21.9 °F 53% 30.02 in 10.0 mi West 8.1 mph - N/A   Clear
12:35 AM 37.2 °F 34.7 °F 22.1 °F 54% 30.03 in 10.0 mi SW 3.5 mph - N/A   Clear
12:55 AM 37.2 °F 31.9 °F 22.6 °F 56% 30.03 in 10.0 mi West 6.9 mph - N/A   Clear
1:15 AM 37.4 °F 30.3 °F 20.3 °F 50% 30.02 in 10.0 mi West 10.4 mph - N/A   Clear
1:35 AM 37.4 °F 31.4 °F 19.2 °F 48% 30.02 in 10.0 mi West 8.1 mph - N/A   Clear
1:55 AM 37.2 °F 31.9 °F 19.2 °F 48% 30.02 in 10.0 mi West 6.9 mph - N/A   Clear
2:15 AM 36.9 °F 30.7 °F 19.2 °F 49% 30.02 in 10.0 mi West 8.1 mph - N/A   Clear
2:35 AM 36.5 °F 31.8 °F 18.5 °F 48% 30.02 in 10.0 mi WSW 5.8 mph - N/A   Clear
2:55 AM 36.5 °F 31.0 °F 18.3 °F 48% 30.02 in 10.0 mi West 6.9 mph - N/A   Clear
3:15 AM 36.9 °F 29.6 °F 18.1 °F 47% 30.02 in 10.0 mi West 10.4 mph - N/A   Clear
3:35 AM 37.8 °F 30.2 °F 18.3 °F 46% 30.00 in 10.0 mi West 11.5 mph - N/A   Clear
3:55 AM 38.1 °F 31.2 °F 18.5 °F 45% 30.00 in 10.0 mi West 10.4 mph 19.6 mph N/A   Clear
4:15 AM 37.8 °F 28.6 °F 19.0 °F 47% 30.00 in 10.0 mi West 16.1 mph 21.9 mph N/A   Clear
4:35 AM 36.7 °F 29.9 °F 18.7 °F 48% 30.00 in 10.0 mi West 9.2 mph - N/A   Clear
4:55 AM 36.7 °F 28.9 °F 18.1 °F 47% 30.00 in 10.0 mi West 11.5 mph - N/A   Clear
5:15 AM 36.3 °F 31.6 °F 17.6 °F 47% 30.00 in 10.0 mi WSW 5.8 mph - N/A   Clear
5:35 AM 36.5 °F 33.9 °F 17.4 °F 46% 30.00 in 10.0 mi WSW 3.5 mph - N/A   Clear
5:55 AM 36.5 °F 33.9 °F 17.2 °F 46% 29.99 in 10.0 mi West 3.5 mph - N/A   Clear
6:15 AM 36.5 °F 31.8 °F 17.1 °F 45% 29.99 in 10.0 mi West 5.8 mph - N/A   Clear
6:35 AM 36.9 °F 34.3 °F 16.3 °F 43% 29.98 in 10.0 mi WSW 3.5 mph - N/A   Clear
6:55 AM 37.4 °F 34.9 °F 16.0 °F 42% 29.98 in 10.0 mi SW 3.5 mph - N/A   Clear
7:15 AM 37.6 °F - 15.6 °F 41% 29.98 in 10.0 mi Calm Calm - N/A   Clear
7:35 AM 37.6 °F 35.1 °F 15.4 °F 41% 29.98 in 10.0 mi WSW 3.5 mph - N/A   Clear
7:55 AM 36.7 °F 34.1 °F 15.6 °F 42% 29.98 in 10.0 mi WSW 3.5 mph - N/A   Clear
8:15 AM 37.0 °F - 15.8 °F 42% 29.98 in 10.0 mi Calm Calm - N/A   Clear
8:35 AM 38.3 °F 34.8 °F 14.7 °F 38% 29.99 in 10.0 mi WSW 4.6 mph - N/A   Clear
8:55 AM 38.7 °F 32.9 °F 14.7 °F 38% 29.99 in 10.0 mi West 8.1 mph - N/A   Clear
9:15 AM 39.4 °F 31.8 °F 16.0 °F 39% 29.99 in 10.0 mi West 12.7 mph - N/A   Clear
9:35 AM 39.2 °F 32.0 °F 17.4 °F 41% 29.99 in 10.0 mi West 11.5 mph - N/A   Clear
9:55 AM 39.6 °F 33.0 °F 17.1 °F 40% 30.00 in 10.0 mi West 10.4 mph 17.3 mph N/A   Clear
10:15 AM 39.2 °F 31.6 °F 17.8 °F 42% 30.00 in 10.0 mi West 12.7 mph - N/A   Clear
10:35 AM 39.4 °F 33.2 °F 16.5 °F 40% 30.01 in 10.0 mi West 9.2 mph - N/A   Clear
10:55 AM 39.6 °F 32.1 °F 16.3 °F 39% 30.02 in 10.0 mi West 12.7 mph 17.3 mph N/A   Clear
11:15 AM 40.3 °F 32.2 °F 16.3 °F 38% 30.00 in 10.0 mi West 15.0 mph - N/A   Clear
11:35 AM 39.4 °F 32.3 °F 17.1 °F 41% 29.99 in 10.0 mi West 11.5 mph 19.6 mph N/A   Clear
11:55 AM 40.6 °F 36.0 °F 16.3 °F 37% 29.98 in 10.0 mi WSW 6.9 mph 12.7 mph N/A   Scattered Clouds
12:15 PM 41.2 °F 35.5 °F 12.9 °F 32% 29.96 in 10.0 mi WSW 9.2 mph 20.7 mph N/A   Mostly Cloudy
12:35 PM 40.8 °F 34.5 °F 12.2 °F 31% 29.95 in 10.0 mi WSW 10.4 mph 19.6 mph N/A   Scattered Clouds
12:55 PM 41.2 °F 33.0 °F 13.8 °F 33% 29.93 in 10.0 mi West 16.1 mph 20.7 mph N/A   Scattered Clouds
1:15 PM 39.9 °F 32.1 °F 13.8 °F 35% 29.92 in 10.0 mi WSW 13.8 mph 23.0 mph N/A   Scattered Clouds
1:35 PM 39.9 °F 32.5 °F 15.4 °F 37% 29.91 in 10.0 mi West 12.7 mph 20.7 mph N/A   Clear
1:55 PM 40.1 °F 35.3 °F 16.3 °F 38% 29.91 in 10.0 mi WSW 6.9 mph 18.4 mph N/A   Scattered Clouds
2:15 PM 39.7 °F 30.3 °F 16.3 °F 39% 29.89 in 10.0 mi West 19.6 mph 28.8 mph N/A   Scattered Clouds
2:35 PM 39.0 °F 28.8 °F 15.3 °F 38% 29.89 in 10.0 mi West 21.9 mph 38.0 mph N/A   Clear
2:55 PM 38.5 °F 29.2 °F 15.3 °F 39% 29.88 in 10.0 mi West 17.3 mph 34.5 mph N/A   Clear
3:15 PM 38.3 °F 28.1 °F 14.5 °F 38% 29.88 in 10.0 mi WSW 20.7 mph 34.5 mph N/A   Clear
3:35 PM 37.8 °F 27.1 °F 14.2 °F 38% 29.89 in 10.0 mi West 21.9 mph 39.1 mph N/A   Clear
3:55 PM 37.4 °F 26.9 °F 13.6 °F 38% 29.88 in 10.0 mi WNW 20.7 mph 40.3 mph N/A   Clear
4:15 PM 36.9 °F 28.7 °F 13.5 °F 38% 29.89 in 10.0 mi West 12.7 mph 29.9 mph N/A   Clear
4:35 PM 36.5 °F 24.9 °F 11.5 °F 36% 29.88 in 10.0 mi West 24.2 mph 40.3 mph N/A   Clear
4:55 PM 35.6 °F 24.5 °F 9.0 °F 33% 29.88 in 10.0 mi West 20.7 mph 40.3 mph N/A   Clear
5:15 PM 34.3 °F 22.6 °F 8.2 °F 34% 29.88 in 10.0 mi WNW 21.9 mph 36.8 mph N/A   Clear
5:35 PM 33.8 °F 20.1 °F 8.8 °F 35% 29.88 in 10.0 mi West 29.9 mph 35.7 mph N/A   Clear
5:55 PM 33.1 °F 20.3 °F 8.1 °F 35% 29.88 in 10.0 mi West 24.2 mph 41.4 mph N/A   Clear
6:15 PM 32.4 °F 21.7 °F 9.3 °F 38% 29.88 in 10.0 mi WNW 16.1 mph 33.4 mph N/A   Clear
6:35 PM 32.0 °F 19.5 °F 9.1 °F 38% 29.87 in 10.0 mi West 21.9 mph 33.4 mph N/A   Clear
6:55 PM 32.0 °F 19.5 °F 8.2 °F 37% 29.88 in 10.0 mi West 21.9 mph 41.4 mph N/A   Clear
7:15 PM 31.8 °F 17.9 °F 8.1 °F 37% 29.86 in 10.0 mi WNW 27.6 mph 40.3 mph N/A   Clear
7:35 PM 31.6 °F 16.7 °F 7.7 °F 37% 29.85 in 10.0 mi West 32.2 mph 43.7 mph N/A   Clear
7:55 PM 31.1 °F 16.6 °F 8.6 °F 39% 29.85 in 10.0 mi WNW 28.8 mph 44.9 mph N/A   Clear
8:15 PM 30.7 °F 18.1 °F 9.1 °F 40% 29.85 in 10.0 mi WNW 20.7 mph 49.5 mph N/A   Clear
8:35 PM 30.2 °F 14.7 °F 7.0 °F 38% 29.83 in 10.0 mi West 32.2 mph 50.6 mph N/A   Clear
9:15 PM 29.1 °F 14.2 °F 4.1 °F 35% 29.84 in 10.0 mi WNW 27.6 mph 42.6 mph N/A   Clear
9:35 PM 28.8 °F 15.5 °F 6.1 °F 38% 29.85 in 10.0 mi WNW 20.7 mph 38.0 mph N/A   Clear
9:55 PM 28.0 °F 14.9 °F 4.8 °F 37% 29.85 in 10.0 mi West 19.6 mph 46.0 mph N/A   Clear
10:15 PM 27.5 °F 12.0 °F 3.9 °F 37% 29.86 in 10.0 mi WNW 27.6 mph 48.3 mph N/A   Clear
10:55 PM 25.9 °F 10.1 °F 4.8 °F 41% 29.86 in 10.0 mi West 26.5 mph 48.3 mph N/A   Clear
11:15 PM 25.2 °F 11.2 °F 4.8 °F 42% 29.87 in 10.0 mi West 19.6 mph 38.0 mph N/A   Clear
11:35 PM 24.4 °F 9.5 °F 3.4 °F 40% 29.87 in 10.0 mi WNW 21.9 mph 42.6 mph N/A   Clear
11:55 PM 23.9 °F 6.6 °F 1.8 °F 38% 29.86 in 10.0 mi West 29.9 mph 40.3 mph N/A   Clear